Location: Waco, TX
(31.5480°N, 97.1670°W)
Time: 13:51:26

ISS - Pass Details

Date: 20 March 2018
Orbit: 403 x 406 km, 51.6° (Epoch: 23 March)

Event Time Altitude Azimuth Distance (km) Brightness Sun altitude
Rises 06:40:15 0° 309° (NW) 2,321 - -11.9°
Reaches altitude 10° 06:42:23 10° 303° (WNW) 1,458 - -11.5°
Exits shadow 06:42:46 13° 302° (WNW) 1,307 -1.7 -11.4°
Maximum altitude 06:45:32 47° 229° (SW) 541 -3.6 -10.8°
Drops below altitude 10° 06:48:41 10° 153° (SSE) 1,449 -0.8 -10.1°
Sets 06:50:47 0° 148° (SSE) 2,304 0.4 -9.7°
